カタログに戻る

ATLAS D R/B

運用中LEO
NORAD 2328·ROCKET BODY·🇺🇸 United States

打ち上げ Jul 14, 1966 から Vandenberg Space Force Base

Loading…

次のパス (今後24時間)

TLE

最新Source: Space-Track

元期: Sep 14, 2026, 23:07 UTC

1 02328U 66063C   26257.96341550  .00000258  00000-0  12170-4 0  9991
2 02328 144.2312 113.9435 0009202  70.4182  43.2544 13.69987362 12576

AllMySatでATLAS D R/Bをリアルタイム追跡

Download on the App Store